Regional Weather Roundup
Issued by NWS

Home | Current Version | Previous Version | Text Only | Print | Product List | Glossary On
Versions: 1 2 3 4 5 6 7 8 9 10 11 12 13 14 15 16 17 18 19 20 21 22 23 24 25 26 27 28 29 30 31 32 33 34 35 36 37 38 39 40 41 42 43 44 45 46 47 48 49 50
000
ASUS43 KMKX 270120
RWRWI

WISCONSIN REGIONAL WEATHER ROUNDUP
NATIONAL WEATHER SERVICE MILWAUKEE/SULLIVAN WI
800 PM CDT THU MAR 26 2015

NOTE: "FAIR" INDICATES FEW OR NO CLOUDS BELOW 12,000 FEET WITH NO
SIGNIFICANT WEATHER AND/OR OBSTRUCTIONS TO VISIBILITY.

WIZ001-002-006>008-014>016-023>028-270200-
NORTHWEST WISCONSIN

CITY           SKY/WX    TMP DP  RH WIND       PRES   REMARKS
SUPERIOR ARPT  CLEAR     27   3  35 N6        30.18R WCI  21
ASHLAND        MOCLDY    22   8  55 NE6       30.17R WCI  14
HAYWARD        CLEAR     26   3  37 N9        30.12R WCI  17
SIREN          CLEAR     28   0  29 N9        30.14R WCI  19
CUMBERLAND     CLEAR     28   3  34 N10       30.10R WCI  19
RICE LAKE      CLEAR     28   5  37 N10       30.12R WCI  19
CHETEK         CLEAR     28   8  42 N7        30.11R WCI  21
LADYSMITH      CLEAR     27   8  45 N8        30.11R WCI  18
EAU CLAIRE     CLEAR     28  11  48 N6        30.10R WCI  22
MENOMONIE      CLEAR     31  13  47 N5        30.11R WCI  26
NEW RICHMOND   CLEAR     28   8  44 N9        30.13R WCI  19
OSCEOLA        CLEAR     30   6  35 NW8       30.16R WCI  23
$$

WIZ003>005-009-010-017-018-270200-
NORTH CENTRAL WISCONSIN

CITY           SKY/WX    TMP DP  RH WIND       PRES   REMARKS
MANITOWISH WTR CLEAR     17   4  59 N3        30.09R
ARBOR VITAE    CLEAR     17   6  61 N7        30.08R WCI   8
WOODRUFF       CLEAR     17   6  61 N7        30.08R WCI   8
RHINELANDER    CLEAR     17   5  59 N8        30.08R WCI   7
EAGLE RIVER    MOCLDY    16   3  55 N8        30.07R WCI   5
LAND O LAKES   CLOUDY    17   6  61 N5        30.09R WCI  10
PHILLIPS       CLEAR     20   7  57 N9        30.08R WCI   9
TOMAHAWK       CLEAR     19   6  58 CALM      30.09R
MEDFORD        PTCLDY    22   9  57 N10       30.07R WCI  11
MERRILL        CLEAR     21   7  54 N8        30.09R WCI  11
$$

WIZ029-030-035-036-043>047-270200-
CENTRAL WISCONSIN

CITY           SKY/WX    TMP DP  RH WIND       PRES   REMARKS
WAUSAU         FAIR      24   9  52 N8        30.07R WCI  15
MOSINEE        PTCLDY    25  10  54 N9G16     30.08R WCI  15
MARSHFIELD     PTCLDY    26  12  55 N8        30.07R WCI  18
STEVENS POINT  CLOUDY    25   9  51 N9        30.08R WCI  16
WAUPACA        CLOUDY    30  12  46 N14       30.08R WCI  20
WAUTOMA        CLOUDY    30  13  49 N10       30.08R WCI  21
WISC RAPIDS    CLOUDY    27  11  51 N12       30.09R WCI  17
CAMP DOUGLAS   MOCLDY    30  19  64 N8        30.07R WCI  23
$$

WIZ011>013-019>022-031-037>040-048>050-270200-
NORTHEAST WISCONSIN

CITY           SKY/WX    TMP DP  RH WIND       PRES   REMARKS
ANTIGO         FLURRIES  20  11  67 N15       30.06R WCI   7
SHAWANO        CLOUDY    28  13  53 N10       30.09R WCI  19
OCONTO         CLOUDY    26  13  59 N12G17    30.09R WCI  16
STURGEON BAY   CLOUDY    25  12  58 N20       30.10R WCI  11
GREEN BAY      CLOUDY    30  16  56 N15       30.07R WCI  19
MANITOWOC      FLURRIES  29  20  69 N13G20    30.06R WCI  19
APPLETON       CLOUDY    28  14  54 N15       30.06R WCI  17
CLINTONVILLE   CLOUDY    28  12  50 N8        30.08R WCI  20
OSHKOSH        CLOUDY    30  15  53 N17       30.05R WCI  18
$$

WIZ032>034-041-042-053>061-270200-
SOUTHWEST WISCONSIN

CITY           SKY/WX    TMP DP  RH WIND       PRES   REMARKS
LA CROSSE      CLOUDY    34  18  52 N9        30.10R WCI  27
SPARTA         CLOUDY    31  14  50 N6        30.10R WCI  25
VIROQUA        CLOUDY    31  19  61 N8        30.06R WCI  23
BOSCOBEL       CLOUDY    35  19  52 N7        30.08R WCI  29
PRAIRIE DU CHI MOCLDY    33  19  57 NW8       30.09R WCI  26
PLATTEVILLE    CLOUDY    32  22  66 NW8       30.05R WCI  25
$$

WIZ056-057-062-063-064-067-068-270200-
SOUTH CENTRAL WISCONSIN

CITY           SKY/WX    TMP DP  RH WIND       PRES   REMARKS
REEDSBURG      CLOUDY    31  19  60 N9        30.06R WCI  23
BARABOO/DELLS  CLOUDY    31  15  52 N12       30.06R WCI  21
LONE ROCK      CLOUDY    34  16  47 N12       30.07R WCI  25
MINERAL POINT  CLOUDY    32  21  64 NW6       30.04R WCI  26
MADISON        CLOUDY    32  18  56 N8        30.05R WCI  25
MIDDLETON      CLOUDY    34  19  55 N10       30.05R WCI  26
WATERTOWN      MOCLDY    29  17  59 N12       30.04R WCI  20
MONROE         CLOUDY    32  23  69 NW6       30.03R WCI  26
JANESVILLE     CLOUDY    36  19  51 N13       30.03R WCI  27
$$

WIZ051-052-058>065-066-070>072-270200-
SOUTHEAST WISCONSIN

CITY           SKY/WX    TMP DP  RH WIND       PRES   REMARKS
MILWAUKEE      CLOUDY    32  16  51 N14G23    30.03R WCI  22
WAUKESHA       CLOUDY    28  18  64 NW9       30.04R WCI  20
MILWAUKEE/TIMM NOT AVBL
RACINE         CLOUDY    33  19  56 N10       30.05R WCI  25
BURLINGTON     CLOUDY    30  18  59 N9        30.04R WCI  22
KENOSHA        CLOUDY    33  21  61 N15       30.02R WCI  23
FOND DU LAC    CLOUDY    31  14  49 N15       30.05R WCI  20
SHEBOYGAN      CLOUDY    30  19  63 N12       30.04R WCI  20
WEST BEND      CLOUDY    30  16  55 N8        30.04R WCI  23
JUNEAU         CLOUDY    30  15  55 NW9       30.05S WCI  21
$$

LSZ147-162-270200-
LAKE SUPERIOR

STATION/POSITION TIME  TEMP    WIND        PRES    WAVE
                       AIR SEA DIR/SP/G            HT/PER
                 (UTC) (F)     (DEG/KT/KT) (MB)    (FT/S)
DEVILS ISLAND    0100   26     360/ 20/ 22 1023.0R
PORT WING        0040   27      50/  2/  7 1022.0R
SAXON HARBOR     0000   26     360/  9/ 16 1021.0R
$$

LMZ867-665-643>646-270200-
LAKE MICHIGAN

STATION/POSITION TIME  TEMP    WIND        PRES    WAVE
                       AIR SEA DIR/SP/G            HT/PER
                 (UTC) (F)     (DEG/KT/KT) (MB)    (FT/S)
NORTHPORT PIER   0100   24     340/ 22/ 26 1018.6R
SISTER BAY       0017   24     360/ 18/ 22   N/A
KEWAUNEE LAKESHO 0100   27      10/ 10/ 17 1017.3R
SHEBOYGAN LAKESH 0100   31     330/ 14/ 16 1018.6R
PORT WASHINGTON  0040   32     320/  7/ 10 1017.9R
MILWAUKEE LAKESH 0100   33     330/ 10/ 14   N/A
KENOSHA   LAKESH 0100   34     340/ 16/ 20 1016.6R
$$

TC  - TEMPERATURE IN CELSIUS
VSB - VISIBILITY IN STATUTE MILES
WCI - WIND CHILL INDEX
HX  - HEAT INDEX




USA.gov is the U.S. government's official web portal to all federal, state and local government web resources and services.